| DS18B20 | SHTC3 | PZEM-004T | WiFi | ||||||||
|---|---|---|---|---|---|---|---|---|---|---|---|
| ID | Date d/m/Y & Time | data1 สูง | data2 ต่ำ | data3 นอก | temp pcb | hum pcb | Volt | Amp | Watt | rssi | Time |
| 14610 | 21/08/2026 09:08:25 | 30.1  | 29.2  | 30.2  | 31.1  | 64.8  | 232.0  | 0.04  | 4.6  | -78  | 09:08 |
| 14609 | 21/08/2026 09:03:41 | 30.1  | 29.2  | 30.4  | 31.0  | 64.9  | 231.7  | 0.04  | 4.6  | -76  | 09:03 |
| 14608 | 21/08/2026 08:58:58 | 29.9  | 29.2  | 30.6  | 30.8  | 65.0  | 230.3  | 0.04  | 4.6  | -78  | 08:58 |
| 14607 | 21/08/2026 08:54:15 | 29.8  | 29.1  | 30.1  | 31.0  | 65.2  | 229.7  | 0.04  | 4.6  | -76  | 08:54 |
| 14606 | 21/08/2026 08:49:31 | 29.8  | 29.1  | 30.0  | 30.7  | 65.2  | 230.1  | 0.04  | 4.6  | -78  | 08:49 |
| 14605 | 21/08/2026 08:44:47 | 29.8  | 29.1  | 29.7  | 30.8  | 65.4  | 229.7  | 0.04  | 4.6  | -79  | 08:44 |
| 14604 | 21/08/2026 08:40:04 | 29.8  | 29.1  | 29.5  | 30.7  | 65.4  | 229.9  | 0.04  | 4.6  | -77  | 08:40 |
| 14603 | 21/08/2026 08:35:21 | 29.7  | 29.0  | 29.5  | 30.6  | 65.6  | 228.6  | 0.04  | 4.6  | -78  | 08:35 |
| 14602 | 21/08/2026 08:30:37 | 29.6  | 29.0  | 29.8  | 30.4  | 65.7  | 229.3  | 0.04  | 4.6  | -78  | 08:30 |
| 14601 | 21/08/2026 08:25:53 | 29.4  | 28.9  | 30.1  | 30.5  | 65.7  | 229.4  | 0.04  | 4.6  | -76  | 08:25 |
| 14600 | 21/08/2026 08:21:09 | 29.3  | 28.9  | 29.7  | 30.2  | 66.0  | 228.7  | 0.04  | 4.6  | -77  | 08:21 |
| 14599 | 21/08/2026 08:16:26 | 29.2  | 28.9  | 29.1  | 30.4  | 66.2  | 228.6  | 0.04  | 4.6  | -77  | 08:16 |
| 14598 | 21/08/2026 08:11:42 | 29.2  | 28.9  | 29.3  | 30.1  | 66.4  | 229.1  | 0.04  | 4.6  | -78  | 08:11 |
| 14597 | 21/08/2026 08:06:58 | 29.1  | 28.8  | 29.5  | 30.0  | 66.7  | 228.9  | 0.04  | 4.6  | -78  | 08:06 |
| 14596 | 21/08/2026 08:02:15 | 28.9  | 28.8  | 29.1  | 29.9  | 66.8  | 229.4  | 0.04  | 4.6  | -77  | 08:02 |
| 14595 | 21/08/2026 07:57:31 | 28.9  | 28.8  | 28.9  | 29.8  | 67.0  | 229.8  | 0.04  | 4.6  | -79  | 07:57 |
| 14594 | 21/08/2026 07:52:48 | 28.9  | 28.8  | 28.5  | 29.8  | 67.1  | 230.2  | 0.04  | 4.6  | -76  | 07:52 |
| 14593 | 21/08/2026 07:48:04 | 28.8  | 28.8  | 28.5  | 29.8  | 67.2  | 229.2  | 0.04  | 4.6  | -77  | 07:48 |
| 14592 | 21/08/2026 07:43:21 | 28.8  | 28.8  | 28.2  | 29.8  | 67.3  | 229.5  | 0.04  | 4.6  | -77  | 07:43 |
| 14591 | 21/08/2026 07:38:37 | 28.8  | 28.8  | 28.2  | 29.6  | 67.3  | 230.5  | 0.04  | 4.6  | -79  | 07:38 |
| 14590 | 21/08/2026 07:33:54 | 28.7  | 28.7  | 28.0  | 29.5  | 67.4  | 229.6  | 0.04  | 4.6  | -77  | 07:33 |
| 14589 | 21/08/2026 07:29:10 | 28.7  | 28.7  | 27.8  | 29.6  | 67.4  | 230.7  | 0.04  | 4.6  | -79  | 07:29 |
| 14588 | 21/08/2026 07:24:27 | 28.6  | 28.7  | 27.6  | 29.4  | 67.6  | 230.6  | 0.04  | 4.6  | -76  | 07:24 |
| 14587 | 21/08/2026 07:19:44 | 28.6  | 28.7  | 27.2  | 29.5  | 67.7  | 230.2  | 0.04  | 4.6  | -76  | 07:19 |